TimeCET,TemperatureF,Dew PointF,Humidity,Sea Level PressureIn,VisibilityMPH,Wind Direction,Wind SpeedMPH,Gust SpeedMPH,PrecipitationIn,Events,Conditions,WindDirDegrees,DateUTC
12:15 AM,46.4,37.4,71,29.83,-9999.0,SSE,6.7,-,N/A,,Clear,150,2013-03-06 23:15:00
12:45 AM,46.4,37.4,71,29.83,-9999.0,SSE,6.7,-,N/A,,Clear,150,2013-03-06 23:45:00
1:15 AM,46.4,37.4,71,29.83,-9999.0,SSE,8.9,-,N/A,,Clear,160,2013-03-07 00:15:00
1:45 AM,46.4,39.2,76,29.83,-9999.0,SSE,6.7,-,N/A,,Clear,150,2013-03-07 00:45:00
2:15 AM,44.6,39.2,81,29.83,-9999.0,SSE,6.7,-,N/A,,Clear,160,2013-03-07 01:15:00
2:45 AM,44.6,39.2,81,29.80,-9999.0,SSE,6.7,-,N/A,,Clear,160,2013-03-07 01:45:00
3:15 AM,44.6,39.2,81,29.80,-9999.0,SSE,6.7,-,N/A,,Clear,160,2013-03-07 02:15:00
3:45 AM,44.6,39.2,81,29.80,-9999.0,SSE,6.7,-,N/A,,Clear,160,2013-03-07 02:45:00
4:15 AM,44.6,39.2,81,29.80,-9999.0,SSE,6.7,-,N/A,,Clear,160,2013-03-07 03:15:00
4:45 AM,44.6,41.0,87,29.80,-9999.0,SSE,8.9,-,N/A,,Clear,150,2013-03-07 03:45:00
5:15 AM,44.6,41.0,87,29.77,-9999.0,SSE,8.9,-,N/A,,Clear,150,2013-03-07 04:15:00
5:45 AM,-9999,-9999,N/A,-9999,6.2,SSE,8.9,-,N/A,Rain,Light Rain,160,2013-03-07 04:45:00
6:15 AM,44.6,41.0,87,29.80,5.0,SSE,6.7,-,N/A,,Unknown,160,2013-03-07 05:15:00
6:45 AM,44.6,41.0,87,29.80,5.0,SSE,6.7,-,N/A,,Unknown,160,2013-03-07 05:45:00
7:15 AM,46.4,41.0,81,29.80,5.0,SSE,8.9,-,N/A,,Unknown,160,2013-03-07 06:15:00
7:45 AM,46.4,41.0,81,29.80,5.0,SSE,8.9,-,N/A,,Unknown,160,2013-03-07 06:45:00
8:15 AM,48.2,41.0,76,29.77,5.6,SSE,8.9,-,N/A,,Unknown,160,2013-03-07 07:15:00
8:45 AM,-9999,-9999,N/A,-9999,6.2,SSE,8.9,-,N/A,Rain,Light Rain,160,2013-03-07 07:45:00
9:15 AM,51.8,41.0,67,29.77,-9999.0,South,11.2,-,N/A,,Clear,170,2013-03-07 08:15:00
9:45 AM,53.6,41.0,62,29.77,-9999.0,South,11.2,-,N/A,,Clear,170,2013-03-07 08:45:00
10:15 AM,53.6,42.8,67,29.77,-9999.0,South,8.9,-,N/A,,Clear,170,2013-03-07 09:15:00
10:45 AM,55.4,42.8,63,29.77,-9999.0,South,8.9,-,N/A,,Clear,170,2013-03-07 09:45:00
11:15 AM,55.4,42.8,63,29.77,-9999.0,SSE,6.7,-,N/A,,Clear,160,2013-03-07 10:15:00
11:35 AM,55.4,41.0,58,29.77,6.2,South,6.7,-,N/A,Rain,Light Rain,180,2013-03-07 10:35:00
11:45 AM,-9999,-9999,N/A,-9999,5.0,South,8.9,-,N/A,Rain,Rain,170,2013-03-07 10:45:00
12:15 PM,55.4,42.8,63,29.74,6.2,South,6.7,-,N/A,Rain,Light Rain,190,2013-03-07 11:15:00
12:45 PM,55.4,41.0,58,29.74,-9999.0,South,6.7,-,N/A,,Clear,190,2013-03-07 11:45:00
1:15 PM,53.6,44.6,72,29.74,6.2,South,8.9,-,N/A,Rain,Light Rain,190,2013-03-07 12:15:00
1:45 PM,53.6,46.4,77,29.74,6.2,South,6.7,-,N/A,Rain,Light Rain,190,2013-03-07 12:45:00
2:15 PM,53.6,46.4,77,29.74,6.2,SSE,8.9,-,N/A,Rain,Light Rain,150,2013-03-07 13:15:00
2:45 PM,-9999,-9999,N/A,-9999,5.0,South,8.9,-,N/A,Rain,Rain,170,2013-03-07 13:45:00
3:15 PM,51.8,46.4,82,29.71,-9999.0,SSE,11.2,-,N/A,,Clear,150,2013-03-07 14:15:00
3:45 PM,51.8,46.4,82,29.71,-9999.0,SSE,11.2,-,N/A,,Clear,150,2013-03-07 14:45:00
4:15 PM,51.8,46.4,82,29.71,-9999.0,SE,11.2,-,N/A,,Clear,140,2013-03-07 15:15:00
4:45 PM,50.0,46.4,87,29.71,5.6,SE,11.2,-,N/A,,Unknown,140,2013-03-07 15:45:00
5:15 PM,50.0,48.2,94,29.71,5.6,SSE,11.2,-,N/A,,Unknown,150,2013-03-07 16:15:00
5:45 PM,-9999,-9999,N/A,-9999,5.0,SSE,11.2,-,N/A,Rain,Rain,160,2013-03-07 16:45:00
6:15 PM,50.0,48.2,94,29.71,5.0,SSE,11.2,-,N/A,,Unknown,150,2013-03-07 17:15:00
6:45 PM,50.0,48.2,94,29.71,-9999.0,SSE,11.2,-,N/A,,Clear,150,2013-03-07 17:45:00
7:15 PM,50.0,46.4,87,29.71,-9999.0,SSE,11.2,-,N/A,,Clear,150,2013-03-07 18:15:00
7:45 PM,48.2,46.4,93,29.71,5.6,SSE,11.2,-,N/A,,Unknown,150,2013-03-07 18:45:00
8:15 PM,48.2,46.4,93,29.71,5.6,SSE,8.9,-,N/A,,Unknown,150,2013-03-07 19:15:00
8:45 PM,-9999,-9999,N/A,-9999,3.7,SSE,11.2,-,N/A,,Mostly Cloudy,150,2013-03-07 19:45:00
9:15 PM,48.2,46.4,93,29.71,5.6,SSE,11.2,-,N/A,,Unknown,150,2013-03-07 20:15:00
9:45 PM,46.4,46.4,100,29.71,5.0,SSE,11.2,-,N/A,,Unknown,150,2013-03-07 20:45:00
10:15 PM,46.4,46.4,100,29.71,4.3,SSE,6.7,-,N/A,,Unknown,150,2013-03-07 21:15:00
10:45 PM,46.4,46.4,100,29.71,3.7,SSE,6.7,-,N/A,,Unknown,150,2013-03-07 21:45:00
11:15 PM,46.4,46.4,100,29.71,3.7,SE,4.5,-,N/A,,Unknown,140,2013-03-07 22:15:00
11:45 PM,-9999,-9999,N/A,-9999,1.9,North,-9999.0,-,N/A,,Overcast,0,2013-03-07 22:45:00